Time,TemperatureF,DewpointF,PressureIn,WindDirection,WindDirectionDegrees,WindSpeedMPH,WindSpeedGustMPH,Humidity,HourlyPrecipIn,Conditions,Clouds,dailyrainin,SoftwareType,DateUTC
2013-03-05 00:02:00,31.0,23.0,30.09,SE,124,0.0,-999.0,73,-99.99,,,-99.99,,2013-03-05 05:02:00,
2013-03-05 00:11:00,31.0,23.0,30.09,SE,124,0.0,-999.0,73,-99.99,,,-99.99,,2013-03-05 05:11:00,
2013-03-05 00:22:00,31.0,23.0,30.08,SE,124,0.0,-999.0,73,-99.99,,,-99.99,,2013-03-05 05:22:00,
2013-03-05 00:31:00,31.0,23.0,30.08,SE,124,0.0,-999.0,73,-99.99,,,-99.99,,2013-03-05 05:31:00,
2013-03-05 00:42:00,31.0,23.0,30.08,SE,124,0.0,-999.0,73,-99.99,,,-99.99,,2013-03-05 05:42:00,
2013-03-05 00:52:00,31.0,23.0,30.07,SE,124,0.0,-999.0,72,-99.99,,,-99.99,,2013-03-05 05:52:00,
2013-03-05 01:01:00,31.0,23.0,30.07,SE,124,0.0,-999.0,71,-99.99,,,-99.99,,2013-03-05 06:01:00,
2013-03-05 01:11:00,31.0,23.0,30.07,SE,124,0.0,-999.0,71,-99.99,,,-99.99,,2013-03-05 06:11:00,
2013-03-05 01:22:00,31.0,22.0,30.06,ESE,113,1.0,-999.0,70,-99.99,,,-99.99,,2013-03-05 06:22:00,
2013-03-05 01:31:00,31.0,23.0,30.05,East,83,1.0,-999.0,71,-99.99,,,-99.99,,2013-03-05 06:31:00,
2013-03-05 01:41:00,31.0,23.0,30.05,East,83,1.0,-999.0,71,-99.99,,,-99.99,,2013-03-05 06:41:00,
2013-03-05 01:52:00,31.0,23.0,30.05,ENE,75,1.0,-999.0,72,-99.99,,,-99.99,,2013-03-05 06:52:00,
2013-03-05 02:01:00,31.0,23.0,30.05,ENE,78,1.0,-999.0,73,-99.99,,,-99.99,,2013-03-05 07:01:00,
2013-03-05 02:11:00,31.0,23.0,30.05,ENE,78,1.0,-999.0,73,-99.99,,,-99.99,,2013-03-05 07:11:00,
2013-03-05 02:22:00,31.0,23.0,30.04,ESE,102,2.0,-999.0,73,-99.99,,,-99.99,,2013-03-05 07:22:00,
2013-03-05 02:31:00,31.0,24.0,30.04,ESE,104,2.0,-999.0,74,-99.99,,,-99.99,,2013-03-05 07:31:00,
2013-03-05 02:41:00,31.0,24.0,30.04,ESE,104,2.0,-999.0,74,-99.99,,,-99.99,,2013-03-05 07:41:00,
2013-03-05 02:52:00,31.0,24.0,30.03,ESE,103,1.0,-999.0,74,-99.99,,,-99.99,,2013-03-05 07:52:00,
2013-03-05 03:02:00,31.0,24.0,30.03,ESE,103,1.0,-999.0,74,-99.99,,,-99.99,,2013-03-05 08:02:00,
2013-03-05 03:11:00,31.0,24.0,30.03,ESE,103,1.0,-999.0,74,-99.99,,,-99.99,,2013-03-05 08:11:00,
2013-03-05 03:21:00,31.0,24.0,30.03,ESE,103,1.0,-999.0,74,-99.99,,,-99.99,,2013-03-05 08:21:00,
2013-03-05 03:52:00,31.0,22.0,30.01,East,100,1.0,-999.0,70,-99.99,,,-99.99,,2013-03-05 08:52:00,
2013-03-05 04:01:00,31.0,22.0,30.00,East,95,2.0,-999.0,69,-99.99,,,-99.99,,2013-03-05 09:01:00,
2013-03-05 04:11:00,31.0,22.0,30.00,East,95,2.0,-999.0,69,-99.99,,,-99.99,,2013-03-05 09:11:00,
2013-03-05 04:21:00,31.0,22.0,29.99,East,93,3.0,-999.0,69,-99.99,,,-99.99,,2013-03-05 09:21:00,
2013-03-05 04:31:00,31.0,22.0,29.99,ESE,110,2.0,-999.0,69,-99.99,,,-99.99,,2013-03-05 09:31:00,
2013-03-05 04:42:00,31.0,22.0,29.99,ESE,110,2.0,-999.0,69,-99.99,,,-99.99,,2013-03-05 09:42:00,
2013-03-05 04:52:00,31.0,22.0,29.98,ENE,76,3.0,-999.0,68,-99.99,,,-99.99,,2013-03-05 09:52:00,
2013-03-05 05:01:00,31.0,22.0,29.98,East,82,2.0,-999.0,68,-99.99,,,-99.99,,2013-03-05 10:01:00,
2013-03-05 05:11:00,31.0,22.0,29.98,East,82,2.0,-999.0,68,-99.99,,,-99.99,,2013-03-05 10:11:00,
2013-03-05 05:21:00,31.0,21.0,29.98,East,92,3.0,-999.0,66,-99.99,,,-99.99,,2013-03-05 10:21:00,
2013-03-05 05:32:00,31.0,21.0,29.98,East,89,2.0,-999.0,66,-99.99,,,-99.99,,2013-03-05 10:32:00,
2013-03-05 05:42:00,31.0,21.0,29.98,East,89,2.0,-999.0,66,-99.99,,,-99.99,,2013-03-05 10:42:00,
2013-03-05 05:52:00,31.0,21.0,29.97,East,85,3.0,-999.0,66,-99.99,,,-99.99,,2013-03-05 10:52:00,
2013-03-05 06:01:00,31.0,21.0,29.97,East,79,4.0,-999.0,66,-99.99,,,-99.99,,2013-03-05 11:01:00,
2013-03-05 06:11:00,31.0,21.0,29.97,East,79,4.0,-999.0,66,-99.99,,,-99.99,,2013-03-05 11:11:00,
2013-03-05 06:22:00,31.0,21.0,29.96,ESE,117,3.0,-999.0,67,-99.99,,,-99.99,,2013-03-05 11:22:00,
2013-03-05 06:32:00,31.0,21.0,29.96,ESE,102,3.0,-999.0,67,-99.99,,,-99.99,,2013-03-05 11:32:00,
2013-03-05 06:42:00,31.0,21.0,29.96,ESE,102,3.0,-999.0,67,-99.99,,,-99.99,,2013-03-05 11:42:00,
2013-03-05 06:52:00,31.0,21.0,29.96,ENE,64,3.0,-999.0,67,-99.99,,,-99.99,,2013-03-05 11:52:00,
2013-03-05 07:02:00,31.0,21.0,29.95,East,96,3.0,-999.0,67,-99.99,,,-99.99,,2013-03-05 12:02:00,
2013-03-05 07:11:00,31.0,21.0,29.95,East,96,3.0,-999.0,67,-99.99,,,-99.99,,2013-03-05 12:11:00,
2013-03-05 07:22:00,31.0,21.0,29.96,SSE,147,3.0,-999.0,67,-99.99,,,-99.99,,2013-03-05 12:22:00,
2013-03-05 07:32:00,31.0,21.0,29.96,East,99,4.0,-999.0,67,-99.99,,,-99.99,,2013-03-05 12:32:00,
2013-03-05 07:42:00,31.0,21.0,29.96,East,99,4.0,-999.0,67,-99.99,,,-99.99,,2013-03-05 12:42:00,
2013-03-05 07:52:00,31.0,21.0,29.95,ENE,71,4.0,-999.0,67,-99.99,,,-99.99,,2013-03-05 12:52:00,
2013-03-05 08:02:00,31.0,22.0,29.95,East,96,3.0,-999.0,68,-99.99,,,-99.99,,2013-03-05 13:02:00,
2013-03-05 08:11:00,31.0,22.0,29.95,East,96,3.0,-999.0,68,-99.99,,,-99.99,,2013-03-05 13:11:00,
2013-03-05 08:21:00,31.0,21.0,29.96,ESE,102,3.0,-999.0,67,-99.99,,,-99.99,,2013-03-05 13:21:00,
2013-03-05 08:32:00,31.0,22.0,29.96,East,89,3.0,-999.0,68,-99.99,,,-99.99,,2013-03-05 13:32:00,
2013-03-05 08:42:00,31.0,22.0,29.96,East,89,3.0,-999.0,68,-99.99,,,-99.99,,2013-03-05 13:42:00,
2013-03-05 08:52:00,31.0,22.0,29.96,ENE,78,3.0,-999.0,68,-99.99,,,-99.99,,2013-03-05 13:52:00,
2013-03-05 09:02:00,31.0,22.0,29.95,ESE,109,3.0,-999.0,68,-99.99,,,-99.99,,2013-03-05 14:02:00,
2013-03-05 09:11:00,31.0,22.0,29.95,ESE,109,3.0,-999.0,68,-99.99,,,-99.99,,2013-03-05 14:11:00,
2013-03-05 09:21:00,31.0,22.0,29.94,ESE,102,3.0,-999.0,69,-99.99,,,-99.99,,2013-03-05 14:21:00,
2013-03-05 09:32:00,31.0,22.0,29.94,ESE,114,3.0,-999.0,70,-99.99,,,-99.99,,2013-03-05 14:32:00,
2013-03-05 09:42:00,31.0,22.0,29.94,ESE,114,3.0,-999.0,70,-99.99,,,-99.99,,2013-03-05 14:42:00,
2013-03-05 09:52:00,31.0,22.0,29.94,East,89,3.0,-999.0,70,-99.99,,,-99.99,,2013-03-05 14:52:00,
2013-03-05 10:01:00,31.0,23.0,29.93,ESE,109,3.0,-999.0,71,-99.99,,,-99.99,,2013-03-05 15:01:00,
2013-03-05 10:11:00,31.0,23.0,29.93,ESE,109,3.0,-999.0,71,-99.99,,,-99.99,,2013-03-05 15:11:00,
2013-03-05 10:21:00,31.0,23.0,29.93,East,85,2.0,-999.0,73,-99.99,,,-99.99,,2013-03-05 15:21:00,
2013-03-05 10:32:00,31.0,23.0,29.93,East,85,3.0,-999.0,73,-99.99,,,-99.99,,2013-03-05 15:32:00,
2013-03-05 10:42:00,31.0,23.0,29.93,East,85,3.0,-999.0,73,-99.99,,,-99.99,,2013-03-05 15:42:00,
2013-03-05 10:52:00,32.0,24.0,29.92,ESE,116,3.0,-999.0,73,-99.99,,,-99.99,,2013-03-05 15:52:00,
2013-03-05 11:01:00,32.0,24.0,29.92,ENE,69,3.0,-999.0,73,-99.99,,,-99.99,,2013-03-05 16:01:00,
2013-03-05 11:11:00,32.0,24.0,29.92,ENE,69,3.0,-999.0,73,-99.99,,,-99.99,,2013-03-05 16:11:00,
2013-03-05 11:21:00,32.0,24.0,29.92,East,96,4.0,-999.0,72,-99.99,,,-99.99,,2013-03-05 16:21:00,
2013-03-05 11:32:00,33.0,24.0,29.91,NE,55,2.0,-999.0,70,-99.99,,,-99.99,,2013-03-05 16:32:00,
2013-03-05 11:42:00,33.0,24.0,29.91,NE,55,2.0,-999.0,70,-99.99,,,-99.99,,2013-03-05 16:42:00,
2013-03-05 11:52:00,33.0,24.0,29.91,East,86,5.0,-999.0,69,-99.99,,,-99.99,,2013-03-05 16:52:00,
2013-03-05 12:01:00,33.0,24.0,29.90,ENE,66,4.0,-999.0,69,-99.99,,,-99.99,,2013-03-05 17:01:00,
2013-03-05 12:11:00,33.0,24.0,29.90,ENE,66,4.0,-999.0,69,-99.99,,,-99.99,,2013-03-05 17:11:00,
2013-03-05 12:21:00,32.0,24.0,29.88,East,85,4.0,-999.0,73,-99.99,,,-99.99,,2013-03-05 17:21:00,
2013-03-05 12:32:00,32.0,25.0,29.88,East,95,4.0,-999.0,76,-99.99,,,-99.99,,2013-03-05 17:32:00,
2013-03-05 12:41:00,32.0,25.0,29.88,East,95,4.0,-999.0,76,-99.99,,,-99.99,,2013-03-05 17:41:00,
2013-03-05 12:52:00,31.0,25.0,29.87,ENE,73,3.0,-999.0,79,-99.99,,,-99.99,,2013-03-05 17:52:00,
2013-03-05 13:01:00,30.0,25.0,29.87,NNE,27,4.0,-999.0,82,-99.99,,,-99.99,,2013-03-05 18:01:00,
2013-03-05 13:11:00,30.0,25.0,29.87,NNE,27,4.0,-999.0,82,-99.99,,,-99.99,,2013-03-05 18:11:00,
2013-03-05 13:21:00,30.0,26.0,29.86,NE,51,3.0,-999.0,84,-99.99,,,-99.99,,2013-03-05 18:21:00,
2013-03-05 13:32:00,30.0,26.0,29.85,ENE,64,4.0,-999.0,85,-99.99,,,-99.99,,2013-03-05 18:32:00,
2013-03-05 13:42:00,30.0,26.0,29.85,ENE,64,4.0,-999.0,85,-99.99,,,-99.99,,2013-03-05 18:42:00,
2013-03-05 13:53:00,30.0,26.0,29.85,ESE,103,3.0,-999.0,85,-99.99,,,-99.99,,2013-03-05 18:53:00,
2013-03-05 14:01:00,30.0,26.0,29.84,East,85,2.0,-999.0,86,-99.99,,,-99.99,,2013-03-05 19:01:00,
2013-03-05 14:11:00,30.0,26.0,29.84,East,85,2.0,-999.0,86,-99.99,,,-99.99,,2013-03-05 19:11:00,
2013-03-05 14:21:00,30.0,27.0,29.83,East,80,2.0,-999.0,87,-99.99,,,-99.99,,2013-03-05 19:21:00,
2013-03-05 14:32:00,29.0,26.0,29.83,ENE,76,2.0,-999.0,88,-99.99,,,-99.99,,2013-03-05 19:32:00,
2013-03-05 14:42:00,29.0,26.0,29.83,ENE,76,2.0,-999.0,88,-99.99,,,-99.99,,2013-03-05 19:42:00,
2013-03-05 14:52:00,29.0,26.0,29.82,ESE,117,2.0,-999.0,89,-99.99,,,-99.99,,2013-03-05 19:52:00,
2013-03-05 15:01:00,29.0,26.0,29.82,East,100,2.0,-999.0,90,-99.99,,,-99.99,,2013-03-05 20:01:00,
2013-03-05 15:11:00,29.0,26.0,29.82,East,82,2.0,-999.0,90,-99.99,,,-99.99,,2013-03-05 20:11:00,
2013-03-05 15:21:00,29.0,26.0,29.82,East,82,2.0,-999.0,90,-99.99,,,-99.99,,2013-03-05 20:21:00,
2013-03-05 15:32:00,29.0,26.0,29.81,East,90,2.0,-999.0,90,-99.99,,,-99.99,,2013-03-05 20:32:00,
2013-03-05 15:41:00,29.0,26.0,29.81,East,90,2.0,-999.0,90,-99.99,,,-99.99,,2013-03-05 20:41:00,
2013-03-05 15:52:00,29.0,27.0,29.80,East,85,1.0,-999.0,91,-99.99,,,-99.99,,2013-03-05 20:52:00,
2013-03-05 16:01:00,29.0,27.0,29.80,North,1,1.0,-999.0,91,-99.99,,,-99.99,,2013-03-05 21:01:00,
2013-03-05 16:11:00,29.0,27.0,29.80,North,1,1.0,-999.0,91,-99.99,,,-99.99,,2013-03-05 21:11:00,
2013-03-05 16:21:00,29.0,27.0,29.80,NE,51,1.0,-999.0,91,-99.99,,,-99.99,,2013-03-05 21:21:00,
2013-03-05 16:31:00,29.0,27.0,29.80,North,1,2.0,-999.0,91,-99.99,,,-99.99,,2013-03-05 21:31:00,
2013-03-05 16:42:00,29.0,27.0,29.80,North,1,2.0,-999.0,91,-99.99,,,-99.99,,2013-03-05 21:42:00,
2013-03-05 16:52:00,29.0,27.0,29.80,NE,47,3.0,-999.0,91,-99.99,,,-99.99,,2013-03-05 21:52:00,
2013-03-05 17:01:00,28.0,26.0,29.80,NE,55,3.0,-999.0,91,-99.99,,,-99.99,,2013-03-05 22:01:00,
2013-03-05 17:11:00,28.0,26.0,29.80,NE,55,3.0,-999.0,91,-99.99,,,-99.99,,2013-03-05 22:11:00,
2013-03-05 17:21:00,29.0,27.0,29.80,NNE,14,2.0,-999.0,91,-99.99,,,-99.99,,2013-03-05 22:21:00,
2013-03-05 17:32:00,28.0,26.0,29.80,NE,54,2.0,-999.0,92,-99.99,,,-99.99,,2013-03-05 22:32:00,
2013-03-05 17:41:00,28.0,26.0,29.80,NE,54,2.0,-999.0,92,-99.99,,,-99.99,,2013-03-05 22:41:00,
2013-03-05 17:52:00,28.0,26.0,29.81,NNE,14,3.0,-999.0,92,-99.99,,,-99.99,,2013-03-05 22:52:00,
2013-03-05 18:01:00,28.0,26.0,29.81,NE,45,3.0,-999.0,92,-99.99,,,-99.99,,2013-03-05 23:01:00,
2013-03-05 18:11:00,28.0,26.0,29.81,NE,45,3.0,-999.0,92,-99.99,,,-99.99,,2013-03-05 23:11:00,
2013-03-05 18:21:00,28.0,26.0,29.80,North,4,2.0,-999.0,92,-99.99,,,-99.99,,2013-03-05 23:21:00,
2013-03-05 18:32:00,28.0,26.0,29.81,NE,49,3.0,-999.0,93,-99.99,,,-99.99,,2013-03-05 23:32:00,
2013-03-05 18:41:00,28.0,26.0,29.81,NE,49,3.0,-999.0,93,-99.99,,,-99.99,,2013-03-05 23:41:00,
2013-03-05 18:52:00,28.0,26.0,29.81,North,7,3.0,-999.0,93,-99.99,,,-99.99,,2013-03-05 23:52:00,
2013-03-05 19:01:00,29.0,27.0,29.81,NE,44,3.0,-999.0,93,-99.99,,,-99.99,,2013-03-06 00:01:00,
2013-03-05 19:11:00,29.0,27.0,29.81,NE,44,3.0,-999.0,93,-99.99,,,-99.99,,2013-03-06 00:11:00,
2013-03-05 19:21:00,29.0,27.0,29.81,NE,41,3.0,-999.0,94,-99.99,,,-99.99,,2013-03-06 00:21:00,
2013-03-05 19:32:00,29.0,27.0,29.82,NE,54,2.0,-999.0,94,-99.99,,,-99.99,,2013-03-06 00:32:00,
2013-03-05 19:41:00,29.0,27.0,29.82,NE,54,2.0,-999.0,94,-99.99,,,-99.99,,2013-03-06 00:41:00,
2013-03-05 19:52:00,29.0,27.0,29.82,NE,47,2.0,-999.0,94,-99.99,,,-99.99,,2013-03-06 00:52:00,
2013-03-05 20:01:00,29.0,27.0,29.81,NNE,25,2.0,-999.0,94,-99.99,,,-99.99,,2013-03-06 01:01:00,
2013-03-05 20:11:00,29.0,27.0,29.81,NNE,25,2.0,-999.0,94,-99.99,,,-99.99,,2013-03-06 01:11:00,
2013-03-05 20:21:00,29.0,27.0,29.81,NE,44,3.0,-999.0,94,-99.99,,,-99.99,,2013-03-06 01:21:00,
2013-03-05 20:32:00,29.0,27.0,29.81,NE,41,2.0,-999.0,94,-99.99,,,-99.99,,2013-03-06 01:32:00,
2013-03-05 20:41:00,29.0,27.0,29.81,NE,41,2.0,-999.0,94,-99.99,,,-99.99,,2013-03-06 01:41:00,
2013-03-05 20:52:00,30.0,28.0,29.80,North,7,3.0,-999.0,94,-99.99,,,-99.99,,2013-03-06 01:52:00,
2013-03-05 21:01:00,30.0,28.0,29.81,NNE,16,2.0,-999.0,94,-99.99,,,-99.99,,2013-03-06 02:01:00,
2013-03-05 21:11:00,30.0,28.0,29.81,NNE,16,2.0,-999.0,94,-99.99,,,-99.99,,2013-03-06 02:11:00,
2013-03-05 21:22:00,29.0,27.0,29.81,NE,52,3.0,-999.0,94,-99.99,,,-99.99,,2013-03-06 02:22:00,
2013-03-05 21:32:00,29.0,27.0,29.82,North,10,3.0,-999.0,94,-99.99,,,-99.99,,2013-03-06 02:32:00,
2013-03-05 21:42:00,29.0,27.0,29.82,North,10,3.0,-999.0,94,-99.99,,,-99.99,,2013-03-06 02:42:00,
2013-03-05 21:52:00,29.0,27.0,29.82,North,4,3.0,-999.0,94,-99.99,,,-99.99,,2013-03-06 02:52:00,
2013-03-05 22:01:00,29.0,27.0,29.83,NNE,20,2.0,-999.0,94,-99.99,,,-99.99,,2013-03-06 03:01:00,
2013-03-05 22:11:00,29.0,27.0,29.83,NNE,20,2.0,-999.0,94,-99.99,,,-99.99,,2013-03-06 03:11:00,
2013-03-05 22:22:00,29.0,27.0,29.84,NNE,25,2.0,-999.0,94,-99.99,,,-99.99,,2013-03-06 03:22:00,
2013-03-05 22:32:00,29.0,27.0,29.85,NE,44,2.0,-999.0,94,-99.99,,,-99.99,,2013-03-06 03:32:00,
2013-03-05 22:42:00,29.0,27.0,29.85,NE,44,2.0,-999.0,94,-99.99,,,-99.99,,2013-03-06 03:42:00,
2013-03-05 22:52:00,29.0,27.0,29.86,North,6,2.0,-999.0,94,-99.99,,,-99.99,,2013-03-06 03:52:00,
2013-03-05 23:02:00,29.0,27.0,29.86,North,7,2.0,-999.0,94,-99.99,,,-99.99,,2013-03-06 04:02:00,
2013-03-05 23:11:00,29.0,27.0,29.86,North,7,2.0,-999.0,94,-99.99,,,-99.99,,2013-03-06 04:11:00,
2013-03-05 23:21:00,28.0,27.0,29.87,North,10,2.0,-999.0,94,-99.99,,,-99.99,,2013-03-06 04:21:00,
2013-03-05 23:32:00,28.0,27.0,29.88,NNE,16,2.0,-999.0,94,-99.99,,,-99.99,,2013-03-06 04:32:00,
2013-03-05 23:41:00,28.0,27.0,29.88,NNE,16,2.0,-999.0,94,-99.99,,,-99.99,,2013-03-06 04:41:00,
2013-03-05 23:52:00,28.0,27.0,29.88,NNE,14,1.0,-999.0,94,-99.99,,,-99.99,,2013-03-06 04:52:00,